• Join FlightAware (Why Join?)
  • Login
  • US Flag 
11:32PM EST


 

Airport Tracker/Info


-or-


 

Live Flight TrackerFlight Track Log ✈ JIA2329 ✈ 29-Jun-2013 ✈ KALB - KPHL

Flight Track Log - Related Links

Times and Time Zones

All times are in EDT time to prevent confusion due to time zone crossing. See the JIA2329 flight status page for this flight to view local times or setup timezone preferences in your user account.

Time Position Orientation Groundspeed Altitude Reporting Facility
EDT Latitude Longitude Course Direction KTS MPH feet Rate Location/Type
05:56AM 42.7214 -73.8078 220° Southwest 165 190 1,400  Level Boston Center
05:57AM 42.7014 -73.9206 256° West 241 277 4,900 2,280 Climbing Boston Center
05:58AM 42.7333 -74.1436 270° West  Level FlightAware Approximate
05:58AM 42.7125 -74.0197 279° West 255 293 7,900  Level Boston Center
05:59AM 42.7333 -74.2728 270° West  Level FlightAware Approximate
05:59AM 42.7256 -74.1244 280° West 261 300 11,100  Level Boston Center
06:00AM 42.6818 -74.3726 220° Southwest  Level FlightAware Approximate
06:00AM 42.7386 -74.2294 280° West 275 316 13,100  Level Boston Center
06:01AM 42.6087 -74.4549 220° Southwest  Level FlightAware Approximate
06:01AM 42.7203 -74.3308 256° West 285 328 14,900  Level Boston Center
06:02AM 42.6628 -74.4053 224° Southwest 272 313 16,700 1,920 Climbing Boston Center
06:03AM 42.5967 -74.4822 221° Southwest 308 354 18,800 1,140 Climbing Boston Center
06:04AM 42.5286 -74.5589 220° Southwest 323 372 19,000 60 Climbing Boston Center
06:05AM 42.4606 -74.6353 220° Southwest 323 372 19,000  Level Boston Center
06:06AM 42.4008 -74.7064 221° Southwest 323 372 19,000  Level Boston Center
06:07AM 42.3325 -74.7825 219° Southwest 311 358 19,000  Level Boston Center
06:08AM 42.2706 -74.8558 221° Southwest 306 352 19,000  Level Boston Center
06:09AM 42.2211 -74.9156 222° Southwest 306 352 19,000  Level Boston Center
06:11AM 42.0883 -75.0353 214° Southwest 284 327 19,000  Level New York Center
06:12AM 42.0175 -75.0922 211° Southwest 301 346 19,000  Level New York Center
06:13AM 41.9425 -75.1542 212° Southwest 301 346 19,000 -120 Level New York Center
06:14AM 41.8717 -75.2108 211° Southwest 301 346 18,800 -840 Descending New York Center
06:15AM 41.8008 -75.2672 211° Southwest 307 353 17,400 -1,260 Descending New York Center
06:16AM 41.7342 -75.3211 211° Southwest 313 360 16,300 -1,080 Descending New York Center
06:17AM 41.6589 -75.3825 211° Southwest 320 368 15,300 -1,200 Descending New York Center
06:18AM 41.5817 -75.4439 211° Southwest 315 362 14,000 -1,140 Descending New York Center
06:19AM 41.5064 -75.5022 210° Southwest 315 362 13,100 -960 Descending New York Center
06:20AM 41.4331 -75.5608 211° Southwest 309 356 12,100 -600 Descending New York Center
06:21AM 41.3708 -75.6117 212° Southwest 309 356 12,000 -60 Descending New York Center
06:22AM 41.2911 -75.6750 211° Southwest 309 356 12,000  Level New York Center
06:23AM 41.2097 -75.6772 181° South 284 327 12,000  Level New York Center
06:24AM 41.1275 -75.6519 167° South 291 335 12,000  Level New York Center
06:25AM 41.0453 -75.6242 166° South 300 345 12,000  Level New York Center
06:26AM 40.9631 -75.5989 167° South 310 357 12,000  Level New York Center
06:27AM 40.8889 -75.5744 166° South 310 357 12,000  Level New York Center
06:28AM 40.8006 -75.5464 166° South 310 357 12,000  Level New York Center
06:29AM 40.7183 -75.5186 166° South 310 357 12,000  Level New York Center
06:30AM 40.6381 -75.4942 167° South 305 351 12,000 -300 Level New York Center
06:31AM 40.5558 -75.4667 166° South 305 351 11,500 -960 Descending New York Center
06:32AM 40.4817 -75.4422 166° South 293 337 10,100 -780 Descending New York Center
06:33AM 40.4075 -75.4183 166° South 287 330 10,000 -660 Descending New York Center
06:34AM 40.3431 -75.3594 145° Southeast 276 318 8,900 -1,260 Descending New York Center
06:35AM 40.2850 -75.3011 143° Southeast 290 334 7,500 -1,500 Descending New York Center
06:36AM 40.2106 -75.2339 145° Southeast 290 334 6,000 -1,440 Descending New York Center
06:37AM 40.1481 -75.1756 144° Southeast 290 334 4,700 -1,020 Descending New York Center
06:38AM 40.0917 -75.1203 143° Southeast 267 307 4,000 -360 Descending New York Center
06:39AM 40.0650 -75.0508 117° Southeast 211 243 4,000  Level New York Center
06:40AM 40.0383 -74.9869 119° Southeast 211 243 4,100 -120 Climbing New York Center
06:41AM 39.9869 -74.9647 162° South 192 221 3,800 -600 Descending New York Center
06:42AM 39.9422 -74.9864 200° South 179 206 3,000 -480 Descending New York Center
06:43AM 39.9167 -75.0500 242° Southwest 188 216 2,800 -180 Descending Philadelphia TRACON